Wind_Speed
22 21 20 21 22 23 24 25 26 25 25 23 21 22 22 24 25 26 28 15 14 13 12 11 9 8 11 10 8 7 4 7 8 8 5 2 1 2 2 8 7 7 11 19 19
25 23 22 23 23 26 25 26 26 26 26 24 22 20 20 24 26 24 3 1 1 3 10 14 12 10 7 8 7 6 5 10 6 7 8 5 5 7 6 11 14 18 18 20 16
28 26 24 25 24 27 28 28 29 26 26 26 22 21 18 19 22 1 2 2 3 2 3 7 9 11 6 7 9 6 8 6 5 13 9 8 9 7 11 12 15 20 22 17 12
29 29 28 27 26 26 28 29 30 28 25 25 22 21 19 14 7 2 5 7 3 1 3 6 8 7 6 7 8 6 9 10 5 15 10 10 20 15 16 21 21 20 21 16 19
33 34 31 29 27 28 30 31 31 28 25 24 21 20 18 9 18 20 23 20 17 14 10 9 10 6 4 4 5 7 6 9 14 14 16 16 17 18 13 24 22 17 18 21 23
38 37 33 32 30 30 31 34 29 24 24 22 21 19 14 9 10 8 9 11 17 21 16 16 7 11 3 4 5 2 6 9 7 12 9 9 11 7 15 22 19 18 17 14 12
42 41 40 34 37 32 33 33 30 23 21 19 19 18 17 30 18 21 16 14 11 9 11 10 9 6 5 3 5 6 7 6 10 11 8 6 9 10 22 20 12 10 13 16 14
44 39 40 37 38 36 33 31 27 21 19 16 16 15 14 19 19 22 23 19 16 14 12 8 7 7 4 6 2 3 2 5 1 3 3 8 9 8 3 5 17 19 17 16 16
41 41 39 39 32 34 32 27 23 17 17 14 12 11 14 12 12 7 17 21 17 17 14 7 7 7 4 2 3 0 8 5 6 3 1 4 4 4 11 20 14 18 20 18 20
38 42 37 37 33 30 33 27 18 14 13 9 9 7 13 10 4 6 6 12 13 18 14 8 7 5 4 7 8 4 5 4 5 3 9 15 16 16 21 15 19 19 18 20 18
35 34 40 36 31 31 30 18 8 2 16 14 7 8 5 4 11 8 9 11 14 10 8 7 7 13 18 11 9 6 7 13 11 12 5 12 14 14 18 13 18 18 14 10 10
34 40 36 35 33 33 30 11 8 5 10 18 27 34 29 15 6 16 13 12 9 9 6 4 13 13 8 11 9 8 10 11 9 12 5 12 18 17 16 11 13 6 4 5 10
30 28 36 41 33 35 29 20 15 7 3 13 25 25 27 28 17 19 22 15 7 10 11 11 4 10 9 7 8 10 10 8 10 9 7 8 11 4 3 5 10 7 5 7 11
29 36 43 36 34 28 23 14 10 6 3 8 7 11 14 14 12 35 24 18 6 15 8 9 11 7 6 7 9 11 11 14 13 4 5 5 8 7 4 6 4 5 6 8 13
29 37 37 36 31 25 15 21 17 5 2 1 5 2 8 18 2 12 26 15 11 8 7 7 6 9 14 14 10 8 7 11 10 7 3 6 6 2 3 3 3 2 5 9 12
33 42 41 41 24 19 27 28 22 2 6 3 6 7 8 10 3 6 17 6 5 5 3 3 2 4 5 4 7 1 3 3 1 3 6 12 9 5 4 3 0 1 7 11 15
38 37 45 35 28 28 31 23 5 5 5 5 5 8 7 7 3 3 11 9 6 6 4 1 1 1 1 5 3 1 4 3 3 4 4 2 8 10 2 3 1 5 8 12 16
45 50 40 33 38 44 41 3 4 5 6 3 2 8 4 4 1 2 8 7 4 3 3 6 3 1 3 2 2 2 3 4 5 4 1 4 7 1 8 8 10 8 8 14 20
54 44 39 34 38 41 21 3 7 6 3 2 3 4 1 3 4 4 3 3 2 4 4 4 3 1 4 3 1 2 2 2 1 1 4 6 4 3 4 7 9 11 15 19 19
47 37 29 30 33 31 3 4 5 3 2 2 4 1 4 1 3 3 3 1 4 1 1 5 3 2 2 1 7 2 2 2 1 4 6 5 6 4 2 8 10 11 13 16 19
39 13 34 30 33 12 3 5 3 1 2 2 3 3 5 3 3 2 3 2 2 3 2 2 1 2 3 1 2 2 1 1 1 3 4 5 4 4 6 6 8 9 13 16 19
9 3 30 30 4 3 4 4 4 3 4 1 3 6 4 6 6 4 3 2 3 3 4 2 3 2 1 5 3 4 4 3 3 3 3 4 6 8 5 7 8 8 11 13 16
7 8 21 22 3 3 5 3 2 1 3 2 4 3 2 4 4 4 4 3 4 3 6 5 2 3 2 1 1 3 4 4 3 2 7 6 4 5 6 6 8 7 10 12 15
9 4 4 7 3 7 7 7 7 3 2 5 3 2 3 3 2 5 4 2 3 3 6 3 3 4 4 3 3 2 4 5 4 4 8 14 18 16 14 2 5 6 8 11 13
5 3 9 7 4 5 4 6 6 4 3 4 3 2 3 3 3 3 3 2 4 3 3 2 5 5 5 5 4 9 11 13 15 15 12 15 19 15 12 2 6 4 7 9 12
4 7 9 13 7 7 4 4 6 4 2 2 6 4 3 3 2 4 5 2 3 2 2 0 3 2 4 9 10 15 16 17 18 20 19 23 25 16 5 9 8 5 7 8 12
3 10 10 9 5 4 4 4 6 7 7 5 9 4 6 3 3 3 3 5 4 5 4 4 5 3 3 1 8 13 8 8 9 11 14 16 16 7 7 9 6 6 5 7 11
Wind_Direction
292 297 300 305 309 312 313 313 315 317 315 315 317 318 319 316 317 316 310 288 272 258 242 215 175 170 173 179 171 163 204 225 232 197 249 226 4 279 291 290 298 286 299 309 320
285 287 291 293 299 302 305 305 309 313 311 312 316 316 317 318 320 323 342 98 234 217 214 205 185 173 163 169 181 199 216 218 208 217 247 278 279 305 294 297 296 299 307 314 312
277 278 281 285 288 293 297 298 301 306 306 308 311 312 318 323 324 238 146 113 101 143 168 185 190 190 173 166 187 189 238 210 223 232 246 263 270 280 278 279 275 289 302 309 320
277 279 276 279 282 289 293 297 296 299 299 304 308 309 313 316 296 192 231 239 206 120 198 191 182 169 187 200 199 226 233 226 230 239 243 251 275 266 262 264 276 290 295 295 312
271 276 279 278 279 283 285 286 289 294 295 299 301 306 312 293 260 278 269 256 248 253 252 240 206 185 203 211 187 234 252 244 245 257 259 264 252 260 265 272 284 279 281 289 295
269 272 271 275 273 273 278 283 282 285 291 295 298 301 298 269 285 266 253 256 254 254 245 216 212 212 222 231 209 223 230 258 259 249 247 239 256 219 264 276 274 281 280 286 297
265 263 265 272 276 274 272 274 276 275 281 290 296 293 276 265 268 268 259 253 239 204 202 210 205 182 160 250 261 276 284 279 239 240 247 232 247 232 258 273 282 276 299 298 301
266 260 261 266 269 271 278 274 269 267 281 287 287 285 262 279 264 258 248 241 211 201 197 195 190 228 224 277 318 283 240 273 277 184 264 185 268 253 174 344 311 299 299 297 297
266 256 259 265 264 270 270 272 265 266 280 278 279 269 266 268 270 259 241 240 214 214 219 259 195 206 192 201 284 266 265 243 287 236 242 240 284 243 291 308 294 291 297 295 301
260 255 253 260 257 267 259 268 263 268 271 259 238 261 254 252 220 194 209 212 206 218 231 200 186 179 152 191 236 213 232 243 253 271 286 291 278 264 271 276 278 279 285 295 308
253 248 247 248 253 262 248 250 257 249 226 208 227 233 243 262 213 215 208 189 182 173 184 198 202 205 206 197 222 247 261 270 267 266 294 275 275 269 266 263 262 271 284 314 315
242 243 247 239 242 245 242 217 182 205 265 248 253 257 247 250 267 217 194 170 175 190 153 170 236 216 208 201 210 228 251 266 276 272 208 281 286 275 257 249 249 282 357 13 340
233 231 225 243 235 234 239 228 197 211 309 281 245 248 245 229 225 223 198 192 175 185 192 212 213 191 183 182 207 236 238 252 264 303 278 295 279 243 217 191 115 94 70 27 4
223 227 230 224 224 217 221 209 143 150 350 259 215 249 213 205 237 220 210 190 184 200 184 235 231 191 175 206 210 253 216 236 255 273 280 0 296 247 238 126 98 83 42 16 359
213 216 221 232 218 203 208 145 140 106 240 126 166 229 191 184 223 207 197 188 181 171 167 218 179 185 220 233 212 236 207 214 229 233 268 246 261 97 187 347 149 87 22 9 0
218 217 218 202 196 181 148 143 133 149 238 293 161 173 160 229 285 116 185 197 173 138 245 219 207 167 182 188 183 199 200 170 142 217 249 229 212 299 184 154 216 88 26 7 355
213 217 214 218 186 162 156 132 96 215 356 174 184 177 184 175 251 130 160 163 163 171 192 302 123 76 71 149 159 161 147 222 219 199 259 182 210 253 329 113 43 55 20 0 353
208 196 189 179 164 152 149 118 165 198 243 214 172 143 165 119 305 92 142 167 58 112 140 180 196 321 6 77 161 181 194 212 237 213 152 217 246 226 82 97 102 72 19 359 352
187 175 165 157 166 162 134 171 195 210 250 218 129 147 129 118 133 95 76 111 81 32 184 168 184 328 49 9 324 148 151 43 295 303 264 226 256 141 74 41 47 25 17 3 350
172 159 157 164 165 153 113 187 210 196 279 236 173 329 142 112 126 119 133 23 117 100 20 191 155 340 306 117 30 73 142 143 117 239 246 249 243 221 11 359 9 9 14 354 349
153 120 160 156 161 164 170 197 224 35 202 292 125 117 99 72 46 82 84 93 91 68 98 128 8 157 250 130 140 54 166 159 219 200 251 282 239 80 59 24 2 7 2 356 352
92 91 149 146 139 191 167 153 335 21 8 275 92 66 65 35 12 50 98 99 144 139 110 44 100 184 273 336 221 159 165 138 178 210 240 281 261 92 87 75 49 13 1 -0 358
88 110 162 179 159 142 152 160 213 266 32 34 58 67 97 125 169 152 109 29 136 112 156 169 161 148 118 201 106 148 141 122 109 202 231 238 249 150 106 67 61 11 9 0 357
127 136 111 167 236 166 146 190 159 151 113 78 99 148 124 130 15 134 119 66 64 103 106 112 178 228 214 124 112 188 207 205 186 226 255 239 279 260 294 311 61 12 16 5 352
139 175 160 183 217 185 179 162 136 129 74 62 74 72 138 129 114 114 105 103 44 105 63 137 206 210 249 270 225 250 251 245 242 243 245 261 255 271 289 274 86 37 22 12 360
142 142 165 164 153 168 207 152 136 110 82 91 124 93 92 111 82 159 129 165 171 139 140 62 157 170 249 244 253 268 263 253 254 260 261 259 264 267 130 121 84 47 33 14 15
146 146 150 155 145 139 183 143 139 124 46 77 129 107 88 93 88 107 180 186 169 174 162 161 161 165 235 201 302 280 253 219 230 259 258 248 250 150 139 101 87 60 31 29 28
Height
1518 1518 1518 1517 1517 1515 1515 1514 1512 1510 1509 1508 1506 1505 1502 1498 1496 1494 1490 1491 1490 1490 1489 1490 1492 1494 1496 1499 1502 1503 1505 1504 1498 1501 1492 1491 1490 1489 1490 1490 1490 1490 1489 1487 1484
1514 1515 1514 1514 1513 1514 1512 1511 1509 1508 1506 1505 1504 1501 1499 1496 1492 1489 1487 1486 1488 1487 1489 1488 1491 1493 1495 1497 1500 1501 1500 1495 1494 1492 1491 1490 1490 1490 1490 1488 1486 1486 1485 1484 1482
1510 1510 1509 1510 1509 1510 1510 1508 1506 1504 1503 1503 1501 1499 1497 1494 1490 1485 1486 1487 1488 1488 1489 1490 1490 1491 1494 1494 1495 1495 1490 1492 1490 1489 1490 1488 1486 1487 1486 1484 1485 1481 1480 1480 1479
1504 1504 1505 1505 1505 1505 1506 1505 1503 1501 1499 1500 1499 1497 1494 1493 1493 1485 1484 1486 1488 1487 1488 1491 1491 1490 1492 1490 1490 1491 1488 1488 1487 1487 1487 1486 1484 1481 1481 1479 1480 1479 1478 1476 1475
1496 1499 1500 1500 1501 1501 1502 1500 1499 1498 1496 1496 1495 1494 1493 1492 1482 1483 1482 1482 1485 1485 1486 1487 1489 1489 1488 1489 1487 1487 1485 1485 1484 1484 1483 1483 1482 1478 1475 1473 1474 1475 1475 1473 1473
1489 1492 1493 1495 1496 1495 1496 1495 1494 1494 1494 1492 1491 1492 1491 1490 1480 1478 1476 1477 1479 1482 1482 1482 1484 1485 1487 1486 1486 1482 1483 1482 1481 1480 1479 1477 1475 1477 1470 1468 1469 1470 1470 1469 1469
1480 1483 1485 1488 1490 1489 1489 1488 1489 1490 1490 1488 1488 1486 1485 1476 1476 1474 1475 1474 1476 1477 1479 1481 1482 1485 1483 1484 1484 1482 1481 1478 1476 1474 1473 1472 1472 1469 1465 1465 1464 1465 1466 1466 1467
1469 1473 1478 1481 1482 1483 1482 1483 1483 1484 1488 1486 1484 1483 1477 1469 1467 1467 1469 1472 1474 1476 1477 1480 1481 1482 1484 1482 1481 1482 1480 1477 1471 1470 1468 1470 1465 1464 1463 1463 1461 1460 1461 1461 1462
1459 1465 1468 1473 1475 1476 1478 1478 1479 1479 1485 1483 1483 1482 1468 1464 1462 1461 1464 1466 1472 1475 1476 1478 1478 1480 1482 1483 1483 1482 1475 1478 1473 1468 1468 1469 1466 1462 1460 1460 1459 1457 1455 1455 1456
1451 1455 1459 1466 1470 1471 1473 1474 1474 1476 1481 1480 1481 1484 1463 1461 1460 1459 1462 1462 1467 1469 1476 1477 1476 1475 1478 1479 1475 1475 1477 1477 1475 1467 1466 1467 1464 1462 1459 1458 1454 1452 1452 1451 1452
1444 1447 1451 1457 1462 1464 1469 1471 1477 1475 1476 1469 1467 1461 1458 1458 1458 1458 1458 1461 1463 1466 1470 1473 1471 1466 1466 1470 1471 1473 1474 1472 1469 1465 1468 1460 1457 1455 1453 1453 1450 1448 1448 1449 1448
1434 1442 1446 1448 1453 1459 1462 1466 1467 1470 1467 1458 1459 1456 1456 1456 1456 1454 1455 1458 1460 1460 1466 1471 1464 1464 1465 1469 1470 1472 1471 1469 1465 1460 1464 1455 1448 1446 1444 1443 1443 1445 1446 1446 1445
1426 1434 1439 1442 1447 1451 1455 1461 1464 1466 1469 1450 1449 1446 1446 1450 1448 1447 1450 1449 1452 1459 1460 1460 1457 1457 1462 1466 1468 1467 1468 1467 1465 1459 1456 1454 1438 1439 1436 1440 1443 1444 1445 1445 1444
1418 1427 1429 1436 1446 1445 1450 1456 1460 1469 1467 1447 1443 1436 1437 1440 1438 1435 1441 1445 1449 1451 1457 1458 1453 1456 1460 1460 1463 1463 1461 1459 1460 1463 1457 1453 1447 1436 1434 1436 1441 1444 1445 1445 1443
1408 1417 1421 1433 1432 1442 1449 1452 1461 1469 1459 1435 1433 1433 1434 1438 1430 1428 1435 1440 1442 1448 1453 1448 1448 1450 1454 1454 1456 1455 1454 1456 1457 1457 1459 1454 1453 1433 1436 1432 1439 1444 1445 1445 1444
1405 1407 1416 1425 1428 1437 1444 1450 1456 1472 1447 1430 1429 1433 1437 1434 1428 1429 1435 1439 1441 1447 1448 1446 1445 1444 1444 1447 1450 1451 1453 1455 1458 1455 1454 1443 1445 1422 1430 1434 1439 1443 1446 1446 1444
1399 1403 1412 1418 1421 1433 1441 1450 1462 1451 1431 1426 1427 1430 1427 1428 1428 1428 1429 1436 1438 1446 1449 1448 1447 1446 1446 1446 1448 1449 1450 1451 1453 1455 1444 1443 1445 1424 1434 1438 1441 1446 1448 1447 1443
1393 1398 1408 1413 1419 1427 1434 1449 1445 1434 1429 1421 1419 1424 1425 1425 1430 1430 1432 1437 1441 1439 1446 1446 1451 1449 1446 1446 1447 1449 1446 1444 1447 1446 1446 1448 1439 1428 1440 1442 1444 1447 1447 1446 1442
1386 1397 1406 1412 1416 1426 1431 1439 1426 1428 1425 1420 1419 1423 1426 1423 1426 1430 1436 1439 1442 1442 1444 1450 1451 1450 1448 1449 1450 1449 1450 1453 1452 1454 1451 1435 1432 1436 1438 1439 1441 1444 1445 1446 1445
1384 1396 1410 1412 1419 1425 1429 1431 1426 1423 1424 1420 1417 1421 1424 1426 1425 1428 1434 1442 1443 1446 1445 1449 1450 1455 1451 1452 1452 1449 1453 1454 1457 1454 1443 1425 1429 1422 1436 1437 1440 1443 1444 1445 1442
1386 1399 1408 1413 1422 1426 1423 1427 1421 1422 1423 1423 1420 1422 1424 1428 1429 1432 1438 1444 1443 1446 1447 1449 1448 1457 1454 1452 1454 1455 1455 1455 1454 1455 1445 1436 1425 1435 1439 1446 1447 1448 1448 1444 1439
1389 1398 1405 1414 1421 1424 1421 1419 1422 1421 1423 1422 1421 1422 1423 1430 1432 1433 1437 1440 1444 1445 1448 1453 1455 1457 1455 1458 1456 1456 1456 1456 1454 1457 1456 1452 1432 1440 1444 1448 1449 1450 1449 1445 1441
1391 1401 1408 1412 1415 1419 1417 1421 1422 1422 1422 1422 1422 1424 1429 1434 1439 1438 1440 1444 1444 1446 1449 1452 1457 1458 1460 1459 1457 1455 1456 1458 1463 1463 1462 1456 1432 1438 1442 1446 1447 1449 1448 1446 1442
1394 1402 1407 1412 1413 1414 1416 1421 1423 1424 1424 1422 1425 1428 1430 1434 1437 1439 1442 1445 1445 1447 1448 1450 1453 1449 1446 1449 1452 1458 1459 1458 1461 1464 1452 1444 1437 1432 1436 1444 1446 1449 1448 1446 1444
1390 1397 1398 1408 1412 1411 1414 1414 1417 1420 1421 1423 1427 1428 1428 1434 1437 1441 1443 1446 1447 1448 1451 1452 1453 1453 1450 1451 1456 1455 1455 1455 1454 1454 1456 1444 1442 1436 1439 1444 1446 1449 1448 1447 1444
1387 1390 1397 1402 1405 1411 1411 1412 1414 1420 1422 1425 1427 1431 1430 1433 1435 1440 1441 1444 1445 1450 1452 1454 1455 1456 1455 1452 1452 1452 1450 1449 1449 1448 1446 1440 1433 1436 1442 1446 1447 1450 1449 1448 1444
1385 1389 1392 1402 1405 1407 1409 1410 1415 1418 1425 1424 1427 1431 1434 1437 1437 1439 1441 1443 1444 1446 1451 1452 1454 1457 1457 1453 1452 1447 1440 1442 1442 1441 1437 1437 1429 1437 1444 1447 1450 1450 1451 1448 1445